SCP
0 0 1 1 1 0 0 0 0 0 0 -0 1 1 1 1 1 1 1 1 0 0 0 0 0 0 0 0 0 0 0 0
1 1 1 1 1 1 0 0 0 0 0 0 1 1 1 1 1 1 0 0 0 0 0 0 0 0 0 0 0 0 0 0
2 2 1 1 0 1 1 0 0 0 1 0 1 1 1 1 0 1 0 0 0 0 0 0 0 0 0 0 0 0 0 0
2 1 1 1 1 0 0 0 0 0 1 0 1 1 0 0 0 0 0 0 0 0 0 0 0 0 0 0 0 0 0 0
1 1 1 1 1 1 1 1 0 0 0 1 1 1 0 0 0 0 0 0 0 0 0 0 0 0 0 0 0 0 0 0
1 1 2 2 2 1 1 1 0 0 0 0 0 0 0 0 0 0 0 0 0 0 0 0 0 0 0 0 0 0 0 0
1 0 0 0 0 0 0 0 0 0 0 0 0 -0 -0 0 0 0 0 0 0 0 0 0 0 0 0 0 0 0 0 0
0 0 0 0 0 0 0 0 0 0 0 0 0 0 0 0 0 0 0 0 0 0 0 0 0 0 0 0 0 0 0 0
0 0 0 -0 0 0 0 0 0 0 0 0 0 0 0 0 0 0 0 0 0 0 0 0 0 0 0 0 0 0 0 0
0 -0 -0 -0 -0 0 0 0 0 0 0 0 0 0 0 0 0 0 0 0 0 0 0 0 0 0 0 0 0 0 0 0
0 -0 0 0 0 0 0 0 0 0 0 0 0 0 0 0 0 0 0 0 0 0 0 0 0 0 0 0 0 0 0 0
-0 -0 0 0 0 0 0 0 0 0 0 0 0 0 0 0 0 0 0 0 0 0 0 0 0 0 0 0 0 0 0 -0
0 0 0 0 0 0 0 0 0 0 0 0 0 0 0 0 0 0 0 0 0 0 0 0 0 0 0 0 0 0 0 0
0 0 0 0 0 0 0 0 0 0 0 0 0 0 0 0 0 0 0 0 0 0 0 0 0 0 0 0 -0 -0 -0 -0
0 0 0 0 0 0 0 0 0 0 0 0 0 0 0 0 0 0 0 0 0 0 0 0 0 0 0 0 -0 -0 -0 -0
0 0 0 0 0 0 0 0 0 0 0 0 0 0 0 0 0 0 0 0 0 0 0 0 0 0 0 0 -0 -0 0 0
0 0 0 0 0 0 0 0 0 0 0 0 0 0 0 0 0 0 0 0 0 0 0 0 0 0 0 0 0 0 -0 -0
0 0 0 0 0 0 0 0 0 0 0 0 0 0 0 0 0 0 0 0 0 0 0 0 0 0 0 0 0 -0 -0 -0
0 0 0 0 0 0 0 0 0 0 0 0 -0 0 0 0 0 0 0 0 0 0 0 0 0 -0 0 -0 -0 -0 0 -0
0 0 0 -0 0 0 0 -0 -0 0 0 0 0 0 0 0 0 0 0 0 0 -0 -0 -0 -0 -0 -0 -0 -0 -0 -0 -0
Wind_Speed_500mb
22 26 28 33 35 37 39 28 33 29 47 51 50 42 34 25 22 21 23 25 26 22 16 7 3 4 3 2 3 7 11 15
23 29 31 30 31 32 37 38 37 46 40 34 32 29 30 31 30 30 28 26 20 13 6 3 2 2 4 5 10 14 18 21
26 29 29 27 28 32 33 34 32 31 33 31 33 32 33 31 31 29 26 21 14 10 8 4 2 4 8 11 16 21 25 27
33 33 35 35 33 31 29 29 31 30 30 32 27 26 24 27 27 26 24 19 14 12 9 5 8 8 21 22 24 25 26 30
33 34 32 34 32 33 32 32 25 27 22 23 22 20 12 9 14 18 18 15 8 7 7 11 13 15 23 24 27 31 29 33
40 40 44 43 45 37 32 32 28 31 27 24 17 9 9 3 5 11 11 9 8 9 11 16 20 24 28 26 32 31 28 26
41 42 40 34 30 35 43 33 33 35 25 11 15 7 12 3 5 11 8 10 17 20 18 15 16 23 26 34 42 34 30 28
11 8 9 17 22 25 32 27 15 10 11 14 8 7 4 8 9 10 15 21 17 21 19 23 21 21 33 36 34 27 30 28
35 12 10 17 28 18 18 13 6 16 12 9 8 5 2 6 12 17 14 15 24 26 25 27 25 26 24 27 27 23 24 29
14 17 15 14 15 14 16 16 13 8 11 7 1 6 6 9 9 8 14 20 26 29 30 25 22 26 27 26 25 23 22 22
10 1 14 17 12 4 6 9 4 8 7 8 11 12 12 10 12 16 24 27 30 27 17 20 20 14 15 22 24 22 24 29
18 8 13 10 9 14 19 15 16 14 20 22 20 20 19 21 22 23 26 23 21 13 14 13 11 15 18 22 25 29 32 31
15 11 14 13 25 26 22 8 19 28 25 21 21 20 29 30 22 21 14 14 10 6 7 11 12 16 20 29 35 39 46 39
27 31 33 31 27 18 10 9 11 7 10 19 23 31 20 16 18 23 20 21 12 8 12 12 10 14 18 28 37 43 51 39
33 32 30 26 22 22 10 4 9 10 15 23 28 14 8 13 17 14 4 11 13 12 8 9 11 11 18 25 38 40 40 36
29 29 26 18 14 12 3 7 17 21 26 21 6 7 11 14 14 9 6 7 8 5 4 7 6 12 17 22 34 33 33 32
22 18 15 12 8 8 12 17 20 13 9 8 10 15 11 13 10 9 8 8 5 3 1 6 12 16 16 19 26 31 33 32
13 14 14 12 14 15 17 13 11 13 13 13 18 13 9 10 10 6 6 5 6 7 7 8 8 14 13 8 17 22 28 29
19 19 20 18 17 18 17 20 18 12 13 16 15 9 7 5 5 4 11 10 11 15 14 21 35 10 11 12 13 17 22 27
22 20 19 18 19 19 20 22 19 15 9 6 3 5 5 9 13 8 13 16 19 18 16 11 12 14 8 8 12 16 19 23
Wind_Direction_500mb
132 135 140 150 153 155 156 171 174 179 166 167 185 203 197 210 210 204 181 169 164 160 166 160 229 275 289 272 330 314 304 299
135 135 136 145 144 138 142 147 153 163 171 172 188 187 183 183 181 174 175 172 170 170 188 222 227 241 239 271 299 300 302 304
118 120 126 128 129 131 133 137 142 146 146 156 161 161 162 168 172 174 179 175 177 194 197 209 249 257 275 282 292 298 302 302
115 121 122 123 124 124 124 129 132 131 132 140 144 152 160 171 171 172 182 182 198 208 216 258 271 279 280 284 294 300 300 307
123 123 123 120 118 120 118 112 122 124 130 136 144 142 149 165 164 177 190 201 226 222 247 277 283 273 288 293 303 312 302 300
105 113 111 113 113 116 123 113 125 110 106 101 95 87 53 241 196 216 221 246 259 268 276 285 289 283 294 301 310 321 311 308
108 110 111 114 114 121 126 125 116 115 101 42 30 71 101 76 259 246 252 278 294 303 299 286 284 290 298 306 311 316 304 302
132 206 206 181 145 153 158 130 114 19 4 60 114 237 213 198 221 271 292 307 320 315 304 301 304 306 303 310 314 316 302 302
91 48 172 137 133 155 201 231 178 128 135 149 167 167 226 285 299 305 313 332 330 321 316 313 312 312 311 322 319 318 302 303
94 126 244 221 225 218 166 128 107 117 156 139 230 301 289 301 310 332 348 337 329 322 317 321 321 335 329 336 338 336 331 326
125 181 199 157 160 165 138 147 94 87 81 53 57 72 60 39 13 350 336 327 328 324 335 335 336 346 357 30 34 18 357 343
163 184 184 177 193 111 106 91 93 98 87 74 59 33 17 355 338 329 328 325 330 353 355 7 35 59 40 27 16 5 355 342
183 141 154 151 136 142 136 194 143 104 90 66 39 9 345 336 328 327 341 323 348 355 36 42 48 42 27 22 14 8 358 350
111 118 122 126 128 127 122 127 109 68 8 333 323 317 333 341 339 334 327 340 340 106 86 79 47 46 29 13 8 6 6 18
111 113 114 118 119 108 95 59 325 315 311 314 341 350 345 9 345 339 356 2 117 117 97 58 58 31 18 12 11 15 6 15
105 110 112 115 106 93 5 335 325 317 312 329 354 37 47 15 10 9 17 107 123 106 44 39 3 352 354 3 13 13 8 7
99 94 90 86 70 20 344 343 347 359 23 27 61 92 61 33 36 54 71 52 38 20 261 351 345 342 343 8 20 8 7 6
81 74 66 50 37 27 22 16 31 34 37 42 104 73 52 44 45 55 10 353 335 323 315 326 341 336 337 358 358 3 5 3
78 70 58 56 53 47 56 55 46 56 82 96 108 65 37 11 15 4 341 318 318 313 307 317 313 260 329 325 346 358 357 359
66 62 66 62 72 65 54 64 64 60 67 68 49 7 325 323 280 345 326 317 320 334 341 330 327 324 300 323 335 341 349 352
Wind_Speed_850mb
22 26 28 33 35 37 39 28 33 29 47 51 50 42 34 25 22 21 23 25 26 22 16 7 3 4 3 2 3 7 11 15
23 29 31 30 31 32 37 38 37 46 40 34 32 29 30 31 30 30 28 26 20 13 6 3 2 2 4 5 10 14 18 21
26 29 29 27 28 32 33 34 32 31 33 31 33 32 33 31 31 29 26 21 14 10 8 4 2 4 8 11 16 21 25 27
33 33 35 35 33 31 29 29 31 30 30 32 27 26 24 27 27 26 24 19 14 12 9 5 8 8 21 22 24 25 26 30
33 34 32 34 32 33 32 32 25 27 22 23 22 20 12 9 14 18 18 15 8 7 7 11 13 15 23 24 27 31 29 33
40 40 44 43 45 37 32 32 28 31 27 24 17 9 9 3 5 11 11 9 8 9 11 16 20 24 28 26 32 31 28 26
41 42 40 34 30 35 43 33 33 35 25 11 15 7 12 3 5 11 8 10 17 20 18 15 16 23 26 34 42 34 30 28
11 8 9 17 22 25 32 27 15 10 11 14 8 7 4 8 9 10 15 21 17 21 19 23 21 21 33 36 34 27 30 28
35 12 10 17 28 18 18 13 6 16 12 9 8 5 2 6 12 17 14 15 24 26 25 27 25 26 24 27 27 23 24 29
14 17 15 14 15 14 16 16 13 8 11 7 1 6 6 9 9 8 14 20 26 29 30 25 22 26 27 26 25 23 22 22
10 1 14 17 12 4 6 9 4 8 7 8 11 12 12 10 12 16 24 27 30 27 17 20 20 14 15 22 24 22 24 29
18 8 13 10 9 14 19 15 16 14 20 22 20 20 19 21 22 23 26 23 21 13 14 13 11 15 18 22 25 29 32 31
15 11 14 13 25 26 22 8 19 28 25 21 21 20 29 30 22 21 14 14 10 6 7 11 12 16 20 29 35 39 46 39
27 31 33 31 27 18 10 9 11 7 10 19 23 31 20 16 18 23 20 21 12 8 12 12 10 14 18 28 37 43 51 39
33 32 30 26 22 22 10 4 9 10 15 23 28 14 8 13 17 14 4 11 13 12 8 9 11 11 18 25 38 40 40 36
29 29 26 18 14 12 3 7 17 21 26 21 6 7 11 14 14 9 6 7 8 5 4 7 6 12 17 22 34 33 33 32
22 18 15 12 8 8 12 17 20 13 9 8 10 15 11 13 10 9 8 8 5 3 1 6 12 16 16 19 26 31 33 32
13 14 14 12 14 15 17 13 11 13 13 13 18 13 9 10 10 6 6 5 6 7 7 8 8 14 13 8 17 22 28 29
19 19 20 18 17 18 17 20 18 12 13 16 15 9 7 5 5 4 11 10 11 15 14 21 35 10 11 12 13 17 22 27
22 20 19 18 19 19 20 22 19 15 9 6 3 5 5 9 13 8 13 16 19 18 16 11 12 14 8 8 12 16 19 23
Wind_Direction_850mb
132 135 140 150 153 155 156 171 174 179 166 167 185 203 197 210 210 204 181 169 164 160 166 160 229 275 289 272 330 314 304 299
135 135 136 145 144 138 142 147 153 163 171 172 188 187 183 183 181 174 175 172 170 170 188 222 227 241 239 271 299 300 302 304
118 120 126 128 129 131 133 137 142 146 146 156 161 161 162 168 172 174 179 175 177 194 197 209 249 257 275 282 292 298 302 302
115 121 122 123 124 124 124 129 132 131 132 140 144 152 160 171 171 172 182 182 198 208 216 258 271 279 280 284 294 300 300 307
123 123 123 120 118 120 118 112 122 124 130 136 144 142 149 165 164 177 190 201 226 222 247 277 283 273 288 293 303 312 302 300
105 113 111 113 113 116 123 113 125 110 106 101 95 87 53 241 196 216 221 246 259 268 276 285 289 283 294 301 310 321 311 308
108 110 111 114 114 121 126 125 116 115 101 42 30 71 101 76 259 246 252 278 294 303 299 286 284 290 298 306 311 316 304 302
132 206 206 181 145 153 158 130 114 19 4 60 114 237 213 198 221 271 292 307 320 315 304 301 304 306 303 310 314 316 302 302
91 48 172 137 133 155 201 231 178 128 135 149 167 167 226 285 299 305 313 332 330 321 316 313 312 312 311 322 319 318 302 303
94 126 244 221 225 218 166 128 107 117 156 139 230 301 289 301 310 332 348 337 329 322 317 321 321 335 329 336 338 336 331 326
125 181 199 157 160 165 138 147 94 87 81 53 57 72 60 39 13 350 336 327 328 324 335 335 336 346 357 30 34 18 357 343
163 184 184 177 193 111 106 91 93 98 87 74 59 33 17 355 338 329 328 325 330 353 355 7 35 59 40 27 16 5 355 342
183 141 154 151 136 142 136 194 143 104 90 66 39 9 345 336 328 327 341 323 348 355 36 42 48 42 27 22 14 8 358 350
111 118 122 126 128 127 122 127 109 68 8 333 323 317 333 341 339 334 327 340 340 106 86 79 47 46 29 13 8 6 6 18
111 113 114 118 119 108 95 59 325 315 311 314 341 350 345 9 345 339 356 2 117 117 97 58 58 31 18 12 11 15 6 15
105 110 112 115 106 93 5 335 325 317 312 329 354 37 47 15 10 9 17 107 123 106 44 39 3 352 354 3 13 13 8 7
99 94 90 86 70 20 344 343 347 359 23 27 61 92 61 33 36 54 71 52 38 20 261 351 345 342 343 8 20 8 7 6
81 74 66 50 37 27 22 16 31 34 37 42 104 73 52 44 45 55 10 353 335 323 315 326 341 336 337 358 358 3 5 3
78 70 58 56 53 47 56 55 46 56 82 96 108 65 37 11 15 4 341 318 318 313 307 317 313 260 329 325 346 358 357 359
66 62 66 62 72 65 54 64 64 60 67 68 49 7 325 323 280 345 326 317 320 334 341 330 327 324 300 323 335 341 349 352